Temperature
12 12 12 12 12 12 12 12 13 13 13 13 13 14 14 14 14 14 14 15 15 15 15 15 15 15 15 15 15 15 15 15 15 15 15 14 15 15 15 15 14 14 14
11 12 12 12 12 12 12 12 12 12 13 13 13 13 13 14 14 14 14 14 14 14 14 14 14 14 14 14 14 14 14 15 15 14 14 14 14 14 14 14 14 14 14
11 11 12 12 12 12 12 12 12 12 12 12 13 13 13 13 13 14 14 14 14 14 14 14 14 14 14 14 14 14 14 14 14 14 14 14 14 14 14 14 13 13 13
11 11 11 11 11 11 11 12 12 12 12 12 12 12 13 13 13 13 14 14 14 14 14 14 14 14 14 14 14 14 14 14 14 14 14 13 13 13 13 13 13 13 13
11 11 11 11 11 11 11 11 12 12 12 12 12 12 12 13 13 13 13 13 13 13 13 14 14 14 14 14 14 14 14 14 13 13 13 13 13 13 13 13 13 12 12
11 11 11 11 11 11 11 11 11 11 11 11 12 12 12 12 12 12 13 13 13 13 13 13 13 13 14 14 14 13 13 14 13 13 13 13 13 13 13 13 13 12 12
11 11 11 11 11 11 11 11 11 11 11 11 11 11 11 12 12 12 12 12 12 12 13 13 13 13 13 13 13 13 13 13 13 14 13 13 13 13 13 13 12 12 12
11 11 11 11 11 11 11 11 11 11 11 11 11 11 11 11 11 12 12 12 12 12 12 13 13 13 13 13 13 13 13 13 13 13 13 13 13 13 13 13 12 12 12
12 11 11 11 11 11 11 11 11 11 11 11 11 11 11 11 11 11 12 12 12 12 12 12 13 13 13 13 13 13 13 13 13 13 13 13 13 13 13 12 12 12 11
12 11 11 11 11 11 10 10 10 10 10 10 11 11 11 11 11 11 12 12 12 12 12 12 12 12 13 13 13 13 13 13 13 12 12 12 12 12 12 12 12 12 12
11 11 11 11 11 11 11 11 10 10 10 10 10 11 11 11 11 11 11 12 12 12 12 12 12 12 12 12 12 12 12 12 12 12 12 12 12 12 12 12 12 12 12
12 11 11 11 11 11 11 11 11 11 11 10 10 11 11 11 11 11 11 11 12 12 12 12 12 12 12 12 12 12 12 12 12 12 12 12 12 12 12 12 11 11 11
12 12 11 11 11 11 11 11 11 11 11 11 11 11 10 10 11 11 11 11 11 12 12 12 12 12 12 12 12 12 12 12 12 12 12 11 11 11 11 11 11 11 11
12 12 12 12 11 11 11 11 11 11 11 11 11 11 11 11 11 11 11 11 11 11 11 11 11 11 12 11 11 11 11 11 11 11 11 11 11 11 11 11 11 10 10
13 12 12 12 12 11 11 11 11 11 11 11 11 11 11 11 11 11 11 11 11 11 11 11 11 11 11 11 11 11 11 11 11 11 11 11 10 10 10 10 10 10 10
13 13 12 12 12 11 11 11 11 11 11 11 11 11 11 11 11 11 11 11 11 11 11 11 11 11 11 11 11 11 11 11 11 10 10 10 10 10 10 10 10 10 10
14 13 13 12 12 12 11 11 11 11 11 11 11 11 11 11 11 11 11 11 11 11 11 11 11 11 11 11 11 11 10 10 10 10 10 10 10 10 9 9 9 9 9
14 14 13 13 12 12 12 11 11 11 11 11 11 11 11 11 11 11 11 11 11 11 11 10 10 10 10 10 10 10 10 10 10 10 10 10 10 9 9 9 9 9 9
15 14 13 13 13 12 12 12 12 12 11 11 11 11 11 11 11 11 11 11 11 11 11 11 11 10 10 10 10 10 10 10 10 10 9 9 9 9 9 9 9 9 8
15 14 14 13 13 13 12 12 12 12 12 12 12 12 12 12 11 11 11 11 11 11 11 11 11 11 11 10 10 10 10 10 10 10 9 9 9 9 9 9 9 8 8
15 15 14 14 13 13 13 12 12 12 12 12 12 12 12 12 12 11 11 11 11 11 11 11 11 11 11 11 11 10 10 10 10 9 9 9 9 9 9 9 8 8 8
16 15 15 14 14 13 13 13 13 12 12 12 12 12 12 12 12 12 12 11 11 11 11 11 11 11 11 11 11 11 11 10 10 10 9 9 9 9 8 8 8 8 8
16 15 15 15 14 14 13 13 13 13 12 12 12 12 12 12 12 12 12 12 12 11 11 11 11 11 11 11 11 11 11 11 10 10 9 9 9 9 8 8 8 8 8
16 16 15 15 15 14 14 13 13 13 13 13 13 12 12 12 12 12 12 12 12 12 12 12 12 12 11 11 11 11 11 11 10 10 10 9 9 9 8 8 8 8 8
16 16 15 15 15 14 14 14 13 13 13 13 13 13 13 13 12 12 12 12 12 12 12 12 12 12 12 12 11 11 11 11 11 10 10 9 9 9 9 8 8 8 8
16 16 15 15 15 14 14 14 13 13 13 13 13 13 13 13 13 13 12 12 12 12 12 12 12 12 12 12 12 11 11 11 11 10 10 10 9 9 9 9 8 8 8
Wind_Speed
8 8 8 8 8 8 8 8 8 7 7 7 6 5 4 4 2 1 1 2 3 3 4 6 6 5 5 4 5 5 4 4 4 2 1 1 2 3 3 5 6 6 7
6 7 8 8 8 9 9 9 8 8 7 7 6 6 5 4 4 3 1 1 3 3 4 5 5 5 6 5 4 5 5 4 5 4 2 2 2 3 4 4 4 5 6
6 7 8 8 9 9 8 8 8 8 8 8 7 7 5 5 4 3 2 2 2 2 3 4 5 6 5 4 5 5 4 4 4 4 3 2 1 2 3 3 4 5 7
5 6 7 7 8 8 8 8 8 8 8 8 7 7 6 5 4 3 3 3 3 3 2 3 4 5 6 6 5 5 5 5 5 5 4 2 2 3 4 5 4 4 5
4 5 6 6 7 7 8 8 8 8 9 7 8 8 7 6 5 5 4 5 4 4 4 3 3 4 5 5 5 5 6 5 5 5 4 3 3 3 4 4 6 6 5
4 4 5 6 7 7 7 7 8 8 8 8 8 8 8 7 8 9 6 5 5 5 5 4 4 4 5 6 7 8 8 7 6 4 3 4 3 4 4 6 6 5 3
3 3 4 5 6 7 7 7 7 7 7 8 8 8 8 8 10 10 10 6 6 5 5 4 4 4 5 6 8 8 6 6 7 6 5 4 4 5 6 6 5 4 4
3 3 4 4 5 6 6 7 6 5 6 6 7 8 8 10 13 12 11 8 7 6 5 5 5 4 5 7 8 8 7 6 5 5 5 4 4 5 6 6 7 7 7
2 2 2 3 4 5 6 6 5 5 6 6 6 8 9 9 13 13 11 6 6 7 6 6 5 5 7 10 10 9 9 7 9 11 11 9 9 10 10 9 8 8 5
1 1 1 2 3 4 4 4 4 4 5 5 7 7 8 8 12 12 10 5 6 5 5 6 7 7 9 10 8 9 9 6 6 7 8 9 8 9 9 7 8 8 5
2 0 1 2 2 2 3 4 4 4 5 6 6 7 8 9 11 12 11 5 4 5 5 5 4 8 9 9 8 6 8 7 7 8 7 6 6 6 5 6 5 6 5
2 1 1 2 2 2 3 4 4 5 5 5 5 6 6 7 9 10 12 9 7 6 4 3 5 9 9 9 8 9 11 9 7 7 6 5 5 5 5 6 9 9 7
3 2 1 1 1 2 3 3 3 4 4 3 4 4 4 5 7 11 11 11 10 6 4 6 8 10 10 8 10 11 9 7 6 6 5 4 3 4 4 5 7 10 12
4 3 3 2 1 1 2 2 2 2 2 2 2 2 3 4 5 5 5 5 7 6 5 7 10 11 9 8 8 7 5 5 5 5 4 3 3 4 4 4 4 4 5
5 4 3 4 3 2 1 0 1 1 2 2 1 1 1 1 3 4 3 3 2 2 3 4 4 4 5 5 5 5 4 4 5 3 4 4 4 4 3 3 3 3 4
5 5 4 4 4 3 3 1 2 2 1 2 3 3 1 2 2 3 4 4 3 4 5 4 3 3 4 4 4 3 3 3 3 3 4 4 4 4 3 3 3 4 4
7 6 5 5 5 4 4 4 3 3 3 4 4 3 3 2 1 2 3 4 4 5 4 3 3 3 3 3 3 3 2 2 2 4 4 3 4 3 4 4 4 4 3
8 7 7 6 6 5 5 5 4 4 3 3 5 6 5 4 3 2 2 3 3 3 2 2 3 3 3 3 3 2 2 2 2 3 3 3 3 3 4 4 4 4 4
7 6 6 6 6 6 5 5 5 5 5 4 3 3 5 4 3 3 1 2 2 2 2 2 3 3 3 3 3 3 3 3 3 3 3 3 4 4 4 4 4 6 4
7 10 9 6 5 5 5 5 5 5 5 5 5 5 3 3 2 2 2 3 3 3 4 4 3 4 4 4 4 3 3 3 3 3 3 3 3 4 5 5 5 4 4
7 8 11 7 6 6 6 6 6 6 6 6 7 7 9 6 6 6 5 5 5 5 5 5 5 5 4 4 4 5 5 4 4 4 4 4 4 4 4 4 4 5 4
8 7 7 7 7 6 6 6 6 6 7 8 6 6 12 7 6 6 6 6 6 6 6 6 6 5 6 6 6 5 5 5 5 5 5 4 4 4 4 4 4 4 4
9 9 8 7 7 8 7 6 6 6 7 7 7 6 6 7 7 7 7 7 6 6 5 6 6 6 6 8 9 7 6 6 6 6 6 5 5 4 4 4 5 5 5
11 10 9 8 7 7 7 7 7 7 7 7 7 7 8 8 8 9 8 7 7 6 7 7 7 9 10 10 11 12 12 11 11 11 9 7 6 5 5 4 5 5 5
11 11 10 9 8 8 8 8 8 8 8 7 7 7 7 8 8 8 8 7 8 8 9 9 10 11 13 14 14 14 15 14 14 13 12 7 7 7 6 5 5 4 5
12 12 10 9 9 8 8 8 8 8 8 8 7 7 8 8 9 9 8 7 8 8 8 8 12 15 15 16 18 19 18 18 17 16 14 8 7 6 6 5 6 6 5
Wind_Direction
350 351 354 355 355 359 7 6 4 7 12 16 17 20 26 19 28 73 205 184 176 181 179 181 186 176 183 186 179 171 171 156 164 159 140 141 136 147 141 144 151 160 179
349 355 358 360 2 7 8 4 7 11 13 18 23 25 26 23 33 47 44 136 156 167 175 176 180 174 176 178 173 174 174 165 159 160 150 150 149 162 153 146 141 142 147
358 5 6 4 6 10 8 7 8 13 19 22 26 27 23 21 35 41 56 87 116 137 159 170 173 163 166 164 164 166 163 155 143 147 152 139 123 141 128 117 115 111 123
10 15 12 5 4 7 9 12 13 18 25 26 28 25 24 25 33 47 62 70 80 83 104 134 147 157 160 159 162 162 154 145 142 142 140 133 123 125 125 126 115 102 103
22 19 9 3 7 12 15 15 16 22 27 24 27 23 19 23 36 46 56 75 75 71 69 89 114 130 151 160 157 154 150 147 146 143 139 134 137 137 142 137 129 115 91
36 17 8 13 15 13 13 15 20 22 21 24 26 25 23 27 37 47 59 70 74 74 69 65 81 96 115 125 136 147 153 153 154 148 146 152 156 150 138 139 136 131 114
40 18 10 16 18 11 14 19 19 19 23 25 24 25 23 20 38 56 62 68 68 63 63 64 78 86 90 95 101 105 108 123 143 148 149 159 156 158 146 143 141 127 117
46 18 6 14 15 9 14 15 13 19 25 25 24 23 26 31 47 58 64 66 65 57 52 61 74 73 87 102 100 91 82 77 99 112 129 136 142 145 144 137 130 109 99
50 7 348 4 13 13 11 6 8 23 29 27 25 28 30 28 41 53 62 64 64 55 47 51 67 80 94 101 101 100 91 77 78 89 94 97 107 117 126 123 123 127 122
218 292 329 0 19 14 6 7 14 32 35 35 36 31 32 29 35 47 59 67 68 58 46 41 57 83 96 101 103 108 104 93 89 83 73 70 79 96 110 128 142 142 134
209 221 5 7 21 27 19 23 32 40 42 38 37 31 30 26 29 39 50 61 70 68 58 43 46 81 93 98 99 103 115 112 97 92 84 73 69 72 73 85 108 138 137
190 177 4 1 21 65 48 35 39 48 50 39 37 30 22 17 24 34 47 58 70 77 64 43 53 72 85 97 98 104 106 101 94 90 86 79 77 75 74 78 84 80 81
181 196 204 84 58 76 78 60 43 45 56 46 46 39 15 8 16 31 41 50 56 67 60 62 67 70 74 82 96 102 101 100 101 99 98 89 81 90 88 80 72 75 66
190 207 197 172 145 88 77 79 73 52 56 59 62 50 22 12 10 9 16 30 40 50 51 55 63 67 68 69 75 77 83 104 114 114 112 96 78 79 83 93 95 84 70
199 207 199 191 180 169 150 125 152 227 206 173 186 175 109 12 330 352 24 23 22 39 68 59 57 61 66 62 63 67 74 89 96 102 110 106 97 94 85 79 88 81 91
197 206 203 198 194 186 183 235 305 258 268 213 202 193 231 246 299 1 20 28 48 84 89 81 84 91 98 97 92 79 74 90 103 115 117 119 123 120 107 89 93 108 115
195 201 201 199 196 196 197 202 238 283 280 273 256 238 229 245 279 347 11 29 68 100 95 106 115 123 122 121 117 113 108 101 110 119 122 128 130 125 121 123 121 116 117
197 202 197 200 201 202 206 208 207 213 243 266 261 249 247 251 268 299 8 58 59 67 118 142 148 148 145 146 146 140 129 116 113 121 127 133 138 136 136 143 148 148 145
195 200 201 202 203 206 208 209 210 214 219 230 241 258 245 249 269 272 169 139 168 174 172 173 173 169 166 163 159 155 152 149 146 140 139 141 146 140 145 155 159 158 149
201 206 196 197 203 208 211 214 217 215 216 216 222 225 202 180 221 236 209 199 199 204 197 190 189 182 176 172 165 158 157 158 156 154 160 158 157 156 161 165 167 167 173
198 205 204 200 206 209 211 217 220 215 216 220 226 218 188 193 212 218 213 210 208 208 205 198 193 188 185 178 173 175 176 183 185 178 174 173 166 166 169 170 174 175 171
195 198 197 203 210 215 218 218 217 218 220 223 230 226 204 203 212 216 217 220 216 211 201 193 195 196 192 188 183 181 186 193 195 190 188 184 178 173 167 169 174 176 177
196 199 202 207 210 219 223 222 218 218 220 220 217 212 201 210 218 219 221 220 214 210 203 195 197 202 205 203 197 187 189 198 199 188 184 183 182 181 177 180 181 177 186
200 202 204 207 208 212 218 224 224 223 221 219 215 212 212 214 217 220 220 216 210 207 202 200 201 205 203 204 206 206 207 207 203 198 188 181 183 184 183 186 190 193 195
202 204 206 207 208 211 216 222 225 226 226 223 218 216 216 215 219 222 219 213 208 209 207 205 207 209 210 207 205 208 211 208 203 198 192 182 184 186 185 188 188 189 191
204 206 208 208 209 210 213 217 222 224 225 227 223 219 216 215 218 220 216 209 209 211 211 208 211 211 212 212 214 213 211 207 205 200 192 183 182 189 187 192 196 194 197
Height
1516 1513 1509 1505 1501 1498 1494 1491 1488 1486 1484 1482 1480 1479 1479 1479 1480 1482 1483 1485 1486 1488 1491 1493 1495 1498 1501 1504 1506 1508 1511 1514 1517 1520 1523 1525 1527 1529 1531 1533 1535 1537 1539
1518 1514 1511 1507 1503 1499 1496 1493 1490 1487 1485 1483 1481 1480 1479 1479 1479 1480 1481 1482 1484 1486 1488 1490 1493 1495 1498 1501 1503 1505 1508 1511 1514 1516 1519 1522 1524 1527 1529 1530 1532 1534 1536
1520 1516 1512 1509 1505 1501 1498 1495 1492 1489 1486 1484 1483 1481 1481 1480 1480 1480 1481 1482 1483 1485 1487 1489 1491 1493 1495 1498 1500 1503 1506 1508 1511 1514 1516 1519 1522 1524 1526 1528 1530 1531 1533
1521 1518 1514 1510 1507 1504 1500 1497 1494 1491 1488 1486 1485 1483 1482 1482 1481 1481 1482 1482 1483 1485 1486 1488 1490 1492 1494 1496 1498 1501 1504 1506 1509 1512 1514 1517 1520 1522 1524 1526 1528 1530 1532
1522 1519 1516 1513 1510 1506 1503 1500 1497 1494 1491 1489 1487 1486 1484 1483 1483 1483 1483 1483 1484 1485 1486 1488 1489 1491 1493 1495 1497 1499 1502 1505 1507 1510 1512 1515 1517 1520 1522 1525 1527 1529 1531
1524 1521 1518 1515 1512 1508 1505 1503 1500 1497 1495 1492 1490 1488 1486 1485 1485 1485 1485 1485 1486 1487 1488 1489 1490 1491 1493 1495 1497 1500 1502 1504 1507 1509 1511 1513 1516 1518 1521 1523 1526 1528 1530
1525 1522 1519 1517 1514 1511 1508 1505 1503 1500 1498 1495 1493 1491 1489 1488 1487 1486 1486 1487 1488 1489 1490 1490 1491 1493 1495 1496 1498 1500 1503 1505 1507 1509 1511 1513 1515 1517 1519 1522 1525 1527 1529
1526 1523 1521 1518 1516 1513 1511 1508 1505 1503 1501 1498 1496 1495 1493 1491 1490 1489 1489 1489 1490 1491 1491 1492 1493 1495 1496 1498 1499 1501 1503 1505 1507 1510 1511 1513 1515 1517 1519 1522 1524 1527 1529
1526 1524 1522 1520 1518 1515 1513 1510 1508 1506 1504 1501 1499 1498 1496 1495 1494 1493 1493 1493 1493 1494 1494 1495 1496 1497 1498 1499 1501 1502 1504 1506 1508 1510 1512 1514 1515 1517 1519 1521 1524 1526 1529
1527 1525 1523 1521 1519 1517 1515 1513 1511 1508 1506 1504 1502 1501 1500 1498 1498 1497 1497 1496 1496 1497 1497 1497 1498 1499 1501 1502 1503 1505 1506 1508 1510 1512 1513 1515 1517 1519 1521 1523 1525 1526 1528
1528 1527 1525 1523 1521 1519 1517 1515 1513 1511 1509 1507 1505 1504 1503 1502 1501 1500 1500 1500 1499 1500 1500 1500 1501 1502 1503 1505 1506 1507 1509 1510 1512 1513 1515 1517 1518 1520 1521 1523 1525 1527 1529
1529 1527 1526 1524 1523 1521 1519 1517 1515 1513 1511 1510 1508 1507 1506 1505 1504 1503 1503 1503 1503 1503 1503 1503 1504 1505 1506 1507 1509 1510 1511 1512 1514 1515 1517 1518 1520 1521 1523 1524 1526 1528 1530
1529 1528 1527 1525 1524 1522 1521 1519 1517 1515 1514 1512 1511 1509 1508 1507 1507 1506 1506 1505 1505 1505 1505 1506 1507 1508 1509 1510 1511 1512 1514 1515 1516 1517 1519 1520 1522 1523 1524 1526 1527 1529 1530
1529 1528 1527 1526 1525 1523 1522 1521 1519 1517 1516 1514 1513 1512 1511 1510 1509 1509 1508 1508 1508 1508 1508 1509 1509 1510 1511 1512 1513 1514 1516 1517 1518 1519 1520 1522 1523 1524 1525 1527 1528 1529 1530
1529 1528 1527 1526 1525 1524 1523 1522 1520 1519 1517 1516 1515 1514 1513 1512 1511 1511 1510 1510 1510 1511 1511 1511 1512 1513 1513 1514 1515 1516 1517 1518 1519 1520 1521 1523 1524 1525 1526 1528 1529 1530 1531
1528 1527 1526 1526 1525 1524 1523 1522 1521 1520 1519 1517 1516 1515 1514 1513 1512 1512 1512 1512 1512 1512 1513 1513 1513 1514 1515 1515 1516 1517 1518 1519 1520 1521 1522 1523 1524 1526 1527 1528 1529 1530 1531
1526 1525 1525 1525 1524 1523 1523 1522 1521 1521 1519 1518 1517 1516 1515 1514 1514 1513 1513 1513 1513 1513 1514 1514 1514 1515 1516 1517 1517 1518 1519 1520 1521 1522 1523 1524 1525 1526 1527 1528 1529 1530 1530
1523 1523 1523 1523 1522 1522 1522 1521 1520 1520 1519 1518 1517 1516 1515 1515 1514 1514 1513 1514 1514 1514 1514 1515 1515 1515 1516 1517 1517 1518 1519 1520 1520 1521 1522 1523 1524 1525 1526 1527 1528 1529 1530
1521 1520 1520 1520 1520 1520 1520 1520 1519 1519 1518 1517 1517 1516 1515 1514 1514 1513 1513 1513 1513 1513 1514 1514 1514 1515 1515 1516 1517 1517 1518 1519 1520 1521 1522 1522 1523 1525 1526 1527 1527 1528 1529
1517 1517 1517 1517 1517 1517 1517 1517 1517 1516 1516 1516 1515 1515 1514 1513 1513 1512 1512 1512 1512 1512 1512 1512 1513 1513 1514 1514 1515 1516 1517 1517 1518 1519 1520 1521 1522 1523 1524 1525 1526 1527 1528
1513 1513 1513 1513 1513 1513 1513 1513 1513 1513 1513 1513 1513 1513 1512 1512 1511 1511 1510 1510 1510 1510 1510 1511 1511 1511 1512 1512 1513 1514 1514 1515 1516 1517 1518 1519 1520 1521 1522 1523 1524 1525 1526
1508 1508 1508 1509 1509 1509 1509 1509 1509 1509 1510 1510 1510 1510 1510 1509 1509 1508 1508 1508 1508 1508 1508 1508 1508 1509 1509 1510 1510 1511 1512 1513 1514 1515 1515 1516 1518 1519 1520 1521 1521 1522 1523
1502 1502 1503 1503 1504 1504 1504 1505 1505 1505 1505 1505 1506 1506 1506 1506 1506 1505 1505 1505 1505 1505 1505 1505 1505 1506 1506 1507 1507 1508 1509 1510 1511 1512 1513 1514 1515 1516 1517 1518 1519 1519 1520
1495 1496 1496 1497 1498 1498 1499 1499 1499 1500 1500 1500 1501 1501 1501 1502 1502 1502 1502 1502 1502 1502 1502 1502 1502 1502 1503 1503 1504 1504 1505 1506 1507 1508 1509 1510 1511 1512 1513 1514 1515 1516 1517
1487 1488 1489 1490 1491 1491 1492 1493 1493 1494 1494 1495 1495 1496 1496 1497 1497 1498 1498 1498 1498 1498 1498 1498 1498 1499 1499 1500 1500 1501 1502 1502 1503 1504 1505 1506 1507 1508 1509 1510 1511 1512 1513
1478 1480 1481 1482 1483 1484 1485 1485 1486 1487 1488 1488 1489 1490 1491 1491 1492 1493 1493 1493 1494 1494 1494 1494 1495 1495 1495 1496 1496 1497 1497 1498 1499 1500 1501 1502 1503 1504 1505 1506 1507 1508 1509